    Orbital elements:
    2004 QZ2
    Epoch 2005 Jan. 30.0 TT = JDT 2453400.5                 MPC
    M  20.86163              (2000.0)            P               Q
    n   0.28972768     Peri.  207.98202     +0.37853851     -0.92552309
    a   2.2619138      Node   219.77742     +0.85231380     +0.35307879
    e   0.4926324      Incl.    0.96293     +0.36092907     +0.13690283
    P   3.40           H   18.1           G   0.15           U   0
    Residuals in seconds of arc
    540226 261  0.4-  0.0     041211 046  0.4+  0.2-    050108 084  0.2-  0.1-
    540226 261  0.2+  0.4-    041211 046  0.1+  0.0     050108 379  0.4-  0.2+
    020404 644  0.0   0.2-    041211 046  0.3+  0.1-    050108 379  0.0   0.0
    020408 644  0.1-  0.1+    041211 046  0.2+  0.3+    050108 379  0.1+  0.4+
    020408 644  0.5-  0.0     041211 046  0.0   0.1-    050108 379  0.0   0.1-
    020408 644  0.6-  0.3+    041211 046  0.2-  0.4-    050109 447  0.2-  0.4+
    020422 644  0.3-  0.1-    041212 A56  1.0+  0.6+    050109 447  0.5-  0.6+
    020422 644  0.3-  1.0-    041212 A56  0.6+  0.5+    050109 379  0.7+  0.1+
    040820 703  0.5-  0.1+    041212 A56  0.1+  0.2+    050109 379  0.7+  0.3+
    040820 703  0.4-  0.2-    041212 A56  0.6-  0.4+    050109 379  0.4-  0.4-
    040820 703  0.5-  0.2+    041212 A56  0.2-  0.3+    050109 A06  0.2+  0.4+
    040820 703  0.4-  0.5-    041212 699  0.3-  0.4+    050109 A06  0.2-  0.2+
    040821 651  0.2-  0.0     041212 699  0.1+  0.3+    050109 A06  0.5+  0.6-
    040821 651  0.4-  0.0     041212 699  0.1+  0.2+    050110 379  0.2+  0.1-
    040821 651  0.1+  0.1+    041212 699  0.1-  0.2+    050110 379  0.7+  0.1+
    040822 H36  0.3+  1.5-    041212 H41  0.3-  0.1-    050110 379  0.7+  0.1+
    040822 H36  0.6-  0.6+    041212 H41  0.1-  0.1-    050110 379  0.4-  0.7-
    040822 673  0.3+  0.5+    041212 H41  0.0   0.1+    050110 A62  0.8+  0.1+
    040822 673  0.2+  0.4+    041212 H41  0.1-  0.0     050110 A62  0.8+  0.4+
    040822 673  0.3+  0.4+    041212 H41  0.0   0.0     050110 A62  0.3+  0.1+
    040822 673  0.0   0.3+    041212 046  0.3+  0.4+    050110 A62  0.3+  0.4+
    040824 246  0.1-  0.4+    041212 046  0.2+  0.1+    050110 A62  0.2-  0.3+
    040824 246  0.6-  0.4-    041212 046  0.3+  0.1-    050110 A62  0.6+  0.3+
    040824 246  0.1-  0.1-    041212 046  0.0   0.2+    050110 A62  0.5+  0.1+
    040824 246  0.4-  0.6+    041212 046  0.0   0.3+    050110 A62  0.2+  0.2+
    040824 246  0.2-  0.6+    041213 046  0.2+  0.3+    050110 A62  0.4-  0.2-
    040825 198  0.9-  0.0     041213 H41  0.3-  0.3-    050110 A62  0.2+  0.1+
    040825 198  0.3-  0.1-    041213 H41  0.1-  0.1-    050110 A62  0.1+  0.2+
    040825 198  0.1-  0.2-    041213 H41  0.1-  0.1-    050110 A62  0.3+  0.1+
    040826 413  0.1+  0.1+    041213 H41  0.0   0.0     050110 A62  0.0   0.5+
    040826 413  0.2-  0.0     041213 H41  0.2-  0.2+    050110 A62  0.4+  0.2+
    040827 715  0.1+  0.1-    041213 084  0.2-  0.5-    050110 A62  0.3-  0.2+
    040827 715  0.2-  0.0     041214 A16  0.1+  0.1-    050111 379  0.3+  0.1-
    040827 715  0.2+  0.1+    041214 A16  0.0   0.4-    050111 379  0.5+  0.2+
    040827 715  0.2+  0.1-    041214 A16  0.2+  0.0     050111 379  0.1+  0.1+
    040828 A13  0.7+  0.1+    041214 A16  0.1-  0.0     050111 379  0.2+  0.1+
    040828 A13  0.8-  0.6-    041214 A16  0.0   0.1-    050113 704  0.4+  0.0
    040828 A13  1.0-  0.4+    041214 704  0.3-  0.3+    050113 704  0.3+  0.1+
    040828 A13  0.7-  0.2-    041214 704  0.1-  0.7+    050113 704  0.3+  0.0
    040828 A13  1.2-  0.0     041214 704  0.3-  0.4+    050113 704  0.2+  0.2+
    040828 198  0.8-  1.3+    041214 H41  0.5+  0.2+    050113 704  0.4+  0.1+
    040828 198  0.0   0.6+    041214 H41  0.1+  0.3-    050113 379  0.1+  0.2-
    040828 198  0.3+  0.1-    041214 H41  0.1-  0.3-    050113 379  0.3-  0.2+
    040828 952  0.5+  0.5+    041214 H41  0.3-  0.0     050113 379  0.1-  0.3+
    040828 952  0.0   0.2+    041214 H41  0.4-  0.1+    050113 379  0.3-  0.0
    040828 952  0.9-  0.2-    041214 704  0.3-  0.2+    050113 379  0.0   0.0
    040828 952  0.6-  0.3-    041214 704  0.3-  0.4+    050114 071  1.0+  1.0-
    040828 952  0.5-  0.3-    041215 A39  0.2-  0.0     050114 071 (3.2+  1.3-)
    040902 568  0.1+  0.4+    041215 A39  0.2-  0.1-    050114 071  1.0-  0.2-
    040902 568  0.1-  0.3+    041215 A39  0.2-  0.0     050114 071  2.3+  0.9-
    040907 246  0.5-  0.8+    041215 A39  0.2-  0.3+    050114 071  0.4+  0.5-
    040907 246  0.2+  0.5+    041215 H41  0.3+  0.2+    050114 071  0.8+  0.4-
    040907 246  0.3-  0.9+    041215 H41  0.2-  0.4-    050114 071  0.9+  0.6-
    040907 246  0.3-  0.6+    041215 H41  0.5-  0.2-    050114 071  0.5+  0.7-
    040907 246  0.3-  0.6+    041215 H41  0.2-  0.1+    050114 H41  0.1+  0.2+
    040909 246  0.4-  0.6+    041215 H41  0.2-  0.2+    050114 H41  0.4+  0.1+
    040909 246  0.3-  0.7+    041216 A16  1.6-  0.2-    050114 H41  0.2-  0.5-
    040909 246  0.0   0.2+    041216 A16  1.1+  0.2-    050114 H41  0.3-  0.1+
    040909 246  0.4-  0.2+    041216 A16  0.9-  1.4-    050114 H41  0.2-  0.5+
    040909 246  0.2-  0.3+    041216 H41  0.3-  0.0     050114 H41  0.1+  0.0
    040909 704  0.6-  0.8+    041216 H41  0.2-  0.0     050114 A62  0.1+  0.5+
    040909 704  0.3-  0.1+    041216 H41  0.3+  0.1+    050114 A62  0.2+  0.0
    040909 704  0.4-  0.4+    041216 H41  0.4-  0.0     050114 A62  0.1+  0.1-
    040909 704  0.8-  0.2-    041216 H41  0.1+  0.1-    050114 A62  0.1+  0.2+
    040909 704  0.6-  0.3+    041217 H41  0.1+  0.0     050114 A62  0.0   0.2+
    040911 246  0.1-  0.6+    041217 H41  0.1+  0.1-    050114 A62  0.1+  0.2+
    040911 246  0.2-  0.5+    041217 H41  0.2-  0.4-    050114 A62  0.0   0.3+
    040911 246  0.3-  0.4+    041217 H41  0.1-  0.1-    050114 A62  0.1+  0.3+
    040913 704  0.3-  0.4+    041217 H41  0.1+  0.2+    050114 A62  0.2+  0.4+
    040913 704  0.5-  0.5+    041217 379  0.0   0.2-    050114 A62  0.2+  0.2+
    040913 704  0.1-  0.1+    041217 379  0.5+  0.0     050114 A62  0.2+  0.5+
    040913 704  0.3-  0.8+    041217 379  0.1+  0.3+    050114 A62  0.0   0.2+
    040917 704  0.3-  0.7+    041217 379  0.4+  0.2+    050114 A62  0.2+  0.0
    040917 704  0.2+  0.9+    041217 379  0.3+  0.4-    050114 A62  0.2+  0.0
    040917 704  0.3-  1.0+    041218 H41  0.1+  0.3-    050114 A62  0.4+  0.1+
    040917 704  0.1-  0.8+    041218 H41  0.3-  0.2+    050114 A62  0.3+  0.1+
    040917 704  0.5-  0.5+    041218 H41  0.1+  0.0     050114 A62  0.1+  0.3+
    040922 699  0.3+  0.5+    041218 H41  0.1-  0.1-    050114 A62  0.3+  0.3+
    040922 699  0.2-  0.6+    041218 H41  0.7-  0.0     050115 670  0.3+  0.0
    040922 699  0.4-  0.9+    041218 704  0.1-  0.0     050115 704  0.1+  0.1+
    040922 699  0.0   0.2+    041218 704  0.1+  0.1-    050115 670  0.1+  0.2+
    040923 704  0.1+  0.2+    041218 704  0.2+  0.0     050115 704  0.2-  0.1-
    040923 704  0.7+  0.2+    041218 704  0.2+  0.0     050115 704  0.1-  0.1+
    040923 704  0.0   0.8+    041218 704  0.1+  0.1-    050115 704  0.0   0.1+
    040924 170  0.4+  0.4+    041219 A41  0.2-  0.4+    050115 704  0.0   0.0
    040924 170  0.4+  0.4+    041219 A41  0.2+  0.1-    050115 670  0.1+  0.1+
    040924 170  0.2+  0.3+    041219 A41  0.2-  0.2-    050115 670  0.2+  0.2-
    041008 A50  1.0+  0.2+    041219 H41  0.0   0.4-    050115 A62  0.5+  0.4+
    041008 A50  1.0+  0.6+    041219 H41  0.3-  0.0     050115 A62  0.1+  0.3+
    041008 A50  0.5+  0.1+    041219 H41  0.1-  0.1-    050115 A62  0.2+  0.2+
    041008 A50  1.2+  0.3-    041219 H41  0.0   0.0     050115 A62  0.1+  0.4+
    041008 644  0.1-  0.3+    041219 H41  0.0   0.4+    050115 A62  0.0   0.5+
    041008 644  0.8-  0.0     041220 A62  0.4+  0.4+    050115 A62  0.2+  0.0
    041008 644  0.1-  0.2+    041220 A62  0.1+  0.2+    050115 A62  0.2+  0.7+
    041009 A50  0.7-  0.3-    041220 A62  0.2+  0.1+    050115 A62  0.1+  0.1+
    041009 A50  0.8+  0.8+    041220 A62  0.1-  0.2+    050115 A62  0.2-  0.3+
    041009 704  0.1-  0.1+    041220 A62  0.2-  0.3+    050115 A62  0.2+  0.4+
    041009 704  0.1-  0.1+    041220 A62  0.4+  0.1+    050115 A62  0.1+  0.4+
    041009 704  0.0   0.1+    041220 A62  0.4+  0.2+    050115 A62  0.4+  0.4+
    041009 704  0.0   0.5-    041220 A62  0.1+  0.4+    050115 A62  0.2+  0.4+
    041009 704  0.2-  0.4+    041220 A62  0.0   0.4+    050115 A62  0.2+  0.5+
    041013 830  0.1-  0.2+    041220 A62  0.1+  0.0     050115 A62  0.1+  0.4+
    041013 830  0.1-  0.3+    041220 A62  0.3+  0.2+    050116 H41  0.2+  0.5-
    041013 830  0.2-  0.3+    041220 A62  0.0   0.1+    050116 H41  0.1-  0.2-
    041013 830  0.2+  0.2+    041220 A62  0.0   0.5+    050116 H41  0.1-  0.3-
    041016 084  1.3-  0.0     041220 A62  0.3+  0.2+    050116 H41  0.0   0.0
    041016 H41  0.3-  0.0     041220 A62  0.1+  0.3+    050116 H41  0.3-  0.0
    041016 H41  0.1+  0.6+    041220 A62  0.2+  0.2+    050116 379  0.1+  0.1-
    041016 H41  0.2+  0.4+    041220 A62  0.2+  0.1+    050116 379  0.1+  0.2-
    041018 A56  0.4+  0.4-    041220 A62  0.1-  0.1-    050117 H41  0.1+  0.2-
    041018 A56  0.2-  0.5-    041220 A62  0.2+  0.2+    050117 H41  0.0   0.3-
    041018 A56  0.9+  0.4+    041220 A62  0.1-  0.3+    050117 H41  0.2+  0.3-
    041018 A56  0.1+  0.4+    041220 A62  0.1+  0.1+    050117 H41  0.1+  0.4-
    041018 A56  0.6-  0.3+    041220 A62  0.2+  0.0     050117 H41  0.6-  0.2-
    041018 A56  0.5-  0.6+    041220 A62  0.3+  0.2+    050117 691  0.0   0.3+
    041018 A56  0.4+  0.4+    041220 A62  0.4+  0.3+    050117 704  0.8-  0.5+
    041019 704  0.1+  0.3+    041220 A62  0.0   0.6+    050117 704  0.7-  0.4+
    041019 704  0.3+  0.5-    041220 A62  0.1+  0.2+    050117 691  0.1-  0.2+
    041019 704  0.0   0.4+    041220 A62  0.3+  0.3+    050117 704  0.5-  0.5+
    041019 704  0.4+  0.6+    041220 A62  0.1+  0.2+    050117 704  0.8-  0.5+
    041019 704  0.1+  0.4+    041220 A62  0.1+  0.0     050117 691  0.0   0.2+
    041020 704  0.4-  0.1+    041220 A62  0.2+  0.2+    050117 704  0.6-  0.5+
    041020 704  0.2-  0.6+    041220 A62  0.3+  0.3+    050118 379  0.0   0.2+
    041020 704  0.2+  0.5+    041220 A62  0.1+  0.4+    050118 379  0.1+  0.1+
    041023 670  0.1+  0.1-    041220 A62  0.1-  0.1+    050118 379  0.3-  0.2-
    041023 670  0.1+  0.3-    041220 699  0.2+  0.2+    050119 203  0.0   0.2-
    041030 084  0.4+  0.7+    041220 699  0.6+  0.5+    050119 203  0.0   0.1-
    041106 H41  0.1+  0.5-    041220 699  0.3+  0.3+    050120 699  0.4+  0.1-
    041106 H41 (0.5- 20.1-)   041220 699  0.5+  0.5+    050120 699  0.0   0.3+
    041106 H41  0.4-  0.0     041222 699  0.5-  0.4+    050120 696  0.2-  0.2+
    041106 H41  0.3-  0.2-    041222 699  0.4-  0.7+    050120 699  0.0   0.3-
    041106 H41  0.3-  0.1-    041222 699  0.3-  0.7+    050120 699  0.0   0.4+
    041106 H41  0.4-  0.3+    041222 699  0.0   0.7+    050120 696  0.1-  0.2+
    041107 704  0.1+  0.2-    041225 084  0.5+  0.6-    050120 H41  0.6-  0.4+
    041107 704  0.8-  0.8+    041229 H41  0.4-  0.3+    050120 H41  0.0   0.2-
    041107 704  0.3-  0.2-    041229 H41  0.1-  0.4-    050120 H41  0.0   0.3-
    041107 704  0.6-  0.1-    041229 H41  0.0   0.5-    050120 H41  0.0   0.1+
    041107 704  0.3-  0.4-    041229 H41  0.1+  0.2-    050120 H41  0.1+  0.0
    041113 703  1.5+  0.7-    041229 H41  0.1-  0.0     050120 355  0.1+  0.3+
    041113 703  0.6-  0.4+    041231 084  0.0   0.3+    050120 355  1.0-  0.9-
    041113 703  1.0-  0.2+    050101 A56  0.4-  1.0-    050120 355  0.3+  0.3-
    041113 703  0.6-  0.1-    050101 A56  0.3+  0.5+    050121 H41  0.5-  0.0
    041118 704  0.0   0.5+    050101 A56  0.3+  0.9+    050121 H41  0.4-  0.1+
    041118 704  0.4+  0.7+    050101 379  0.2+  0.2-    050121 H41  0.4-  0.1+
    041118 704  0.4+  0.2-    050101 379  0.1+  0.2-    050121 H41  0.0   0.0
    041118 704  0.2+  0.6+    050101 379  0.7+  0.1+    050121 H41  0.2-  0.0
    041118 704  0.2+  0.8+    050101 379  0.5-  0.2+    050130 203  0.1-  0.5-
    041121 198  0.3-  0.4+    050101 379  0.3+  0.0     050130 203  0.2+  0.1+
    041121 198  0.4-  0.3+    050101 A06  0.4-  0.0     050130 203  0.3-  0.1+
    041121 198  0.3-  0.3+    050104 469  0.3-  0.1-    050201 203  0.3-  0.0
    041121 198  0.4-  0.3+    050104 469  0.1-  0.3-    050201 203  0.1+  0.3+
    041121 198  0.2-  0.3+    050104 469  0.3-  0.1-    050202 704  0.4+  0.6+
    041121 198  0.3-  0.3+    050104 469  0.0   0.2-    050202 704  0.3+  0.3+
    041122 A56  0.1+  0.5+    050104 A62  0.2-  0.2+    050202 704  0.1-  0.2+
    041122 084  0.5+  0.3-    050104 A62  0.1-  0.3+    050202 704  0.2+  0.5+
    041122 A56  0.2-  0.0     050104 A62  0.0   0.2+    050202 704  0.0   0.5+
    041122 A56  0.2+  0.4+    050104 A62  0.2+  0.4+    050202 434  0.8-  0.5-
    041122 A56  0.7+  0.1+    050104 A62  0.1+  0.4+    050202 434  0.1+  0.4-
    041124 198  0.3-  0.3+    050104 469  0.2+  0.0     050202 434  1.4+  0.5-
    041124 198  0.4-  0.2+    050104 A62  0.1+  0.3+    050202 434  0.1-  0.1-
    041124 198  0.4-  0.2+    050104 A62  0.3+  0.4+    050202 203  0.5-  0.2+
    041124 198  0.5-  0.2+    050104 A62  0.1+  0.5+    050202 203  0.6-  0.3+
    041124 198  0.5-  0.2+    050104 A62  0.2+  0.5+    050202 A70  1.0+  0.3-
    041125 H41  0.5-  0.1+    050104 A62  0.1+  0.3+    050202 A70  0.0   0.2+
    041125 H41  0.1-  0.2+    050104 A62  0.0   0.6+    050202 A70  2.0+  0.5-
    041125 H41  0.2-  0.1+    050104 A62  0.0   0.3+    050202 A70  0.9+  0.3-
    041125 H41  0.3-  0.4-    050104 A62  0.0   0.4+    050203 203  0.4+  0.0
    041125 H41  0.9-  0.8-    050104 A62  0.0   0.2+    050203 203  0.1-  0.2+
    041126 084  0.3-  0.1+    050104 A62  0.5+  0.3+    050214 H41  0.3-  0.3-
    041126 118  0.1+  0.0     050104 A62  0.0   0.5+    050214 H41  0.2-  0.6-
    041126 118  0.2-  0.0     050104 A62  0.1-  0.4+    050214 H41  0.3-  0.0
    041126 118  0.0   0.0     050104 A62  0.2+  0.4+    050214 H41  1.2-  0.6-
    041126 118  0.0   0.0     050104 A62  0.1+  0.2+    050215 A53  0.1-  0.1-
    041126 118  0.1-  0.1-    050104 A62  0.3-  0.4+    050215 A53  0.4+  0.1+
    041126 608  0.4+  0.5+    050104 A62  0.0   0.1-    050215 A53  0.3+  0.3+
    041126 608  0.5+  0.2+    050105 A06  1.1-  0.1-    050309 G96  0.1-  0.0
    041126 608  0.5+  0.6+    050105 A06  0.1+  0.1+    050309 G96  0.0   0.1-
    041127 608  0.5+  0.1+    050106 704  0.4+  0.2+    050309 G96  0.1-  0.0
    041127 608  0.1+  0.1-    050106 704  0.6-  0.7+    050309 G96  0.4+  0.2+
    041127 608  0.1+  0.3+    050106 704  0.2-  0.1+    050311 691  0.1+  0.0
    041202 H41  0.0   0.1-    050106 704  0.4-  0.9+    050311 691  0.2+  0.1+
    041202 H41  0.3+  0.7-    050106 704  0.7-  0.8+    050311 691  0.2+  0.1+
    041202 H41  0.1-  0.4+    050106 A62  0.3+  0.5+    050312 699  0.2-  0.1+
    041202 H41  0.5-  0.2+    050107 A62  0.4+  0.2+    050312 699  0.8+  0.1+
    041202 H41  0.1-  0.7-    050107 A62  0.1+  0.1+    050312 699  0.7+  0.2+
    041208 704  0.1+  0.6+    050107 A62  0.3+  0.5+    050312 699  0.4+  0.2+
    041208 704  0.1-  0.4+    050107 A62  0.1+  0.1+    050316 703  0.4-  1.0+
    041208 704  0.3-  1.0+    050107 A62  0.5+  0.5+    050316 703  0.1-  0.7+
    041208 704  0.5-  2.8-    050107 A62  0.4+  0.2+    050316 703  0.8-  0.0
    041208 704  0.1+  0.5+    050107 A62  0.5+  0.5+    050316 703  0.7-  0.6+
    041210 H41  0.2-  0.1-    050107 A62  0.4+  0.1+    050405 G96  0.3+  0.7+
    041210 H41  0.0   0.1+    050107 A62  0.4+  0.0     050405 G96  0.2-  0.5+
    041210 H41  0.2-  0.2-    050107 A62  0.4+  0.2+    050405 G96  0.4-  0.4-
    041210 H41  0.2-  0.2-    050107 A62  0.2+  0.4+    050405 G96  0.5-  0.1-
    041210 H41  0.2-  0.2-    050107 A62  0.5+  0.3+    050406 G96  0.3-  0.1+
    041211 H41  0.2-  0.5-    050107 A62  0.3+  0.3+    050406 G96  0.2-  0.1-
    041211 H41  0.2-  0.3-    050107 A62  0.4+  0.2+    050406 G96  0.4-  0.0
    041211 H41  0.2-  0.1+    050107 185  0.5+  0.1-    050406 G96  0.0   0.1-
    041211 H41  0.2-  0.0     050107 185  0.4+  0.0
    
